Regional Weather Roundup
Issued by NWS

Home | Current Version | Previous Version | Graphics & Text | Print | Product List | Glossary On
Versions: 1 2 3 4 5 6 7 8 9 10 11 12 13 14 15 16 17 18 19 20 21 22 23 24 25 26 27 28 29 30 31 32 33 34 35 36 37 38 39 40 41 42 43 44 45 46 47 48 49 50
000
ASUS43 KMPX 201210
RWRMN
WEATHER ROUNDUP FOR MINNESOTA
NATIONAL WEATHER SERVICE TWIN CITIES/CHANHASSEN MN
700 AM CDT FRI APR 20 2018


NOTE: "FAIR" INDICATES FEW OR NO CLOUDS BELOW 12,000 FEET WITH NO
SIGNIFICANT WEATHER AND/OR OBSTRUCTIONS TO VISIBILITY. N/A MEANS
CURRENT SKY AND/OR WEATHER CONDITIONS ARE NOT AVAILABLE.

MNZ060>063-068>070-201300-
   Twin Cities Metro

CITY           SKY/WX    TMP DP  RH WIND       PRES   REMARKS
TWIN CITIES    FAIR      29  26  89 CALM      30.50R
6HR MIN TEMP:  29; 6HR MAX TEMP:  38;

ST PAUL        FAIR      28  25  88 CALM      30.51R
CRYSTAL        FAIR      24  21  88 CALM      30.48S
BLAINE         MOCLDY    27  23  86 CALM      30.48S
LAKEVILLE      FAIR      23  21  93 S3        30.49S
EDEN PRAIRIE   FAIR      26  23  88 CALM      30.48S
6HR MIN TEMP:  26; 6HR MAX TEMP:  34;

SOUTH ST PAUL  FAIR      27  23  85 CALM      30.50R
LAKE ELMO      FAIR      25  23  93 CALM      30.51R
$$
MNZ001>005-007-008-013>017-022>024-027-028-201300-
   Northwest Minnesota

CITY           SKY/WX    TMP DP  RH WIND       PRES   REMARKS
BEMIDJI        FAIR      26  22  84 CALM      30.41S
HALLOCK        FAIR      32  30  93 S5        30.39R WCI  27
ROSEAU         FAIR      32  27  80 S5        30.40R WCI  27
WARROAD        FAIR      30  27  86 CALM      30.40S
THIEF RVR FALL FAIR      31  29  92 CALM      30.41S
CROOKSTON      FAIR      32  30  93 S5        30.42R WCI  27
FOSSTON        FAIR      32  27  80 S5        30.42R WCI  27
DETROIT LAKES  FAIR      32  30  93 CALM      30.43S
MOORHEAD       FAIR      32  30  93 SE6       30.43S WCI  26
PARK RAPIDS    FAIR      30  25  81 CALM      30.42R
MAHNOMEN       FAIR      33  28  83 S6        30.42R WCI  27
$$
MNZ006-009>011-018-025>026-201300-
   North Central Minnesota

CITY           SKY/WX    TMP DP  RH WIND       PRES   REMARKS
BAUDETTE       FAIR      28  25  88 CALM      30.40R
FLAG ISLAND    FAIR      28  23  80 S3        30.39R
INTL FALLS     FAIR      23  21  92 CALM      30.41R
6HR MIN TEMP:  22; 6HR MAX TEMP:  27;

WASKISH        MOCLDY    25  23  93 CALM      30.42R
BIG FORK       FAIR      23  19  86 CALM      30.41S
LONGVILLE      FAIR      27  25  93 CALM      30.43R
GRAND RAPIDS   FAIR      25  21  85 CALM      30.44R
CRANE LAKE     FAIR      18  18 100 CALM      30.44S
ORR            FAIR      21  16  79 CALM      30.39S
COOK           FAIR      21  19  93 CALM      30.42S
WALKER         FAIR      32  27  82 CALM      30.42R
$$
MNZ012-019>021-037-201300-
   Northeast Minnesota

CITY           SKY/WX    TMP DP  RH WIND       PRES   REMARKS
DULUTH         FAIR      35  24  64 NW5       30.42S WCI  31
6HR MIN TEMP:  32; 6HR MAX TEMP:  37;

ELY            FAIR      21  16  79 CALM      30.42R
HIBBING        FAIR      22  20  92 CALM      30.42R
EVELETH        FAIR      22  20  91 CALM      30.43S
DULUTH HARBOR  FAIR      34  27  75 S9        30.45S WCI  26
TWO HARBORS    FAIR      41  21  45 NW8       30.41R
SILVER BAY     FAIR      27  21  80 CALM      30.41R
GRAND MARAIS     N/A     35  19  52 CALM      30.42
G MARAIS ARPRT FAIR      28  10  47 CALM      30.41R
$$
MNZ029>031-032-039>041-046>048-054>057-064-201300-
   West Central Minnesota

CITY           SKY/WX    TMP DP  RH WIND       PRES   REMARKS
FERGUS FALLS   FAIR      34  27  75 SE6       30.42F WCI  29
WHEATON        PTCLDY    30  28  93 E6        30.45S WCI  24
MORRIS         CLOUDY    30  28  93 E6        30.44S WCI  24
ALEXANDRIA     FAIR      30  24  78 E5        30.44S WCI  25
ELBOW LAKE     FAIR      31  27  86 SE6       30.44S WCI  25
WADENA         FAIR      28  25  86 CALM      30.44R
GLENWOOD       FAIR      28  27  93 S5        30.46R WCI  23
APPLETON       CLOUDY    28  25  86 CALM      30.45S
BENSON         PTCLDY    27  25  93 CALM      30.47S
ORTONVILLE     CLOUDY    28  25  86 SE5       30.43S WCI  23
MADISON        PTCLDY    28  25  86 SE3       30.44S
WILLMAR        FAIR      28  27  93 CALM      30.49S
$$
MNZ033>034-036-042>043-049>051-058-059-201300-
   Central Minnesota

CITY           SKY/WX    TMP DP  RH WIND       PRES   REMARKS
ST CLOUD       FAIR      26  25  96 CALM      30.47R
6HR MIN TEMP:  25; 6HR MAX TEMP:  30;

SAUK CENTRE    FAIR      28  25  91 CALM      30.46R
PAYNESVILLE    FAIR      28  26  91 CALM      30.47R
AITKIN         FAIR      25  21  86 CALM      30.43R
PINE RIVER     FAIR      25  21  86 CALM      30.46R
BRAINERD       FAIR      27  21  78 S3        30.45R
STAPLES        FAIR      27  21  80 CALM      30.45R
LONG PRAIRIE   FAIR      28  25  86 CALM      30.46R
LITTLE FALLS   FAIR      27  21  80 CALM      30.47R
LITCHFIELD     FAIR      27  27 100 CALM      30.47S
BUFFALO        FAIR      26  23  90 CALM      30.49S
MAPLE LAKE     FAIR      27  26  97 CALM      30.49R
HUTCHINSON     FAIR      26  25  98 CALM      30.49R FOG
$$
MNZ037-044-045-052-053-201300-
   East Central Minnesota

CITY           SKY/WX    TMP DP  RH WIND       PRES   REMARKS
PRINCETON      FAIR      25  23  93 CALM      30.47S
MORA           FAIR      27  25  93 CALM      30.49R
CAMBRIDGE      FAIR      27  21  80 CALM      30.48S
RUSH CITY      FAIR      26  24  92 CALM      30.48R
MOOSE LAKE     FAIR      27  21  80 CALM      30.44R
HINCKLEY       FAIR      27  27 100 CALM      30.47R
CLOQUET        FAIR      32  23  69 W5        30.43R WCI  27
MCGREGOR       FAIR      30  25  80 CALM      30.45R
$$
MNZ071>073-080-081-089-090-097-098-201300-
   Southwest Minnesota

CITY           SKY/WX    TMP DP  RH WIND       PRES   REMARKS
MONTEVIDEO     CLOUDY    27  25  93 CALM      30.46R
GRANITE FALLS  CLOUDY    29  25  86 SE3       30.48R
CANBY          CLOUDY    28  20  69 E5        30.44F WCI  23
MARSHALL       CLOUDY    25  19  78 SE3       30.46R
REDWOOD FALLS  CLOUDY    23  21  92 S3        30.47R
OLIVIA         CLOUDY    30  27  86 SE3       30.46S
PIPESTONE      CLOUDY   N/A N/A N/A SE8       30.41S
WINDOM         CLOUDY    21   9  58 CALM      30.46R
WORTHINGTON    CLOUDY    28  19  69 S3        30.45R
JACKSON        CLOUDY    23  18  80 S3        30.46S
TRACY          CLOUDY    31  20  63 S10       30.44R WCI  23
SLAYTON        CLOUDY    24  19  79 S6        30.44S WCI  17
$$
MNZ065>067-074>077-082>085-091>093-201300-
   South Central Minnesota

CITY           SKY/WX    TMP DP  RH WIND       PRES   REMARKS
MANKATO        FAIR      24  20  84 SE3       30.50R
NEW ULM        CLOUDY    25  19  80 CALM      30.48R
ST JAMES       CLOUDY    18  16  93 CALM      30.49R
FAIRMONT       CLOUDY    17  15  92 S3        30.49R
GLENCOE        FAIR      23  23 100 CALM      30.48R
OWATONNA       FAIR      23  21  93 SE5       30.48S FOG     WCI  17
WASECA         FAIR      23  19  86 CALM      30.50R
ALBERT LEA       N/A     18  16  93 CALM      30.49R
$$
MNZ078>079-086>088-094>096-201300-
   Southeast Minnesota

CITY           SKY/WX    TMP DP  RH WIND       PRES   REMARKS
ROCHESTER      FAIR      25  21  85 W3        30.49R
6HR MIN TEMP:  23; 6HR MAX TEMP:  31;

RED WING       FAIR      25  19  80 CALM      30.50S
STANTON        FAIR      23  20  89 S3        30.49R
DODGE CENTER   FAIR      25  19  80 CALM      30.49R
WINONA         FAIR      27  23  86 CALM      30.51R
AUSTIN         FAIR      18  16  93 CALM      30.49R FOG
PRESTON        FAIR      27  21  79 NW3       30.50R
$$
ABBREVIATIONS USED IN REMARKS
   TC - TEMPERATURES IN CELSIUS
  WCI - WIND CHILL INDEX
   HX - HEAT INDEX
  VSB - VISIBILITY
$$




USA.gov is the U.S. government's official web portal to all federal, state and local government web resources and services.